{"data":{"norad_id":66674,"epoch":"2026-05-25T03:46:34.867200Z","epoch_age_seconds":65433,"freshness":"FRESH","line1":"1 66674U 25276J   26145.15734800  .00003391  00000+0  17001-3 0  9994","line2":"2 66674  97.4172 218.7118 0008102  87.3617 272.8544 15.17990948 26904","mean_motion":15.17990948,"eccentricity":0.0008102,"inclination_deg":97.4172,"raan_deg":218.7118,"arg_perigee_deg":87.3617,"mean_anomaly_deg":272.8544,"bstar":0.00017001,"rev_number":2690,"period_min":94.862225752877,"perigee_km":506.33089169157,"apogee_km":517.49552905246,"semimajor_km":6890.050210372,"source":"CELESTRAK","updated_at":"2026-05-25T13:38:06.386209Z"}}